Smyrna River Smyrna DE USA current weather conditions

sailwx.info

Wind from 134 at 1 knots gusting 2

Air temperature 5.1° C
Dewpoint 0.8° C

Last reported at 2019-Dec-08 22:05 UTC.
Time now 2019-Dec-08 23:08 UTC

Location: N 39°17' W 075°35'.
View on Google Maps.

See reports from other nearby stations

  
Tides and Currents Weather Stations Pressure Air Temp Water Temp Dewpoint Dewpoint Depression Visibility Wind Speed Wind Dir Waves Ship Positions
date/time (UTC)wind fromknots sea level pressurealtimeterstation pressurevisibilityair tempwater tempwave heightnotes
2019-Dec-08 22:05 134 1 gusting 2 5.1
2019-Dec-08 22:00 134 1 gusting 3 5.2
2019-Dec-08 21:55 143 1 gusting 3 5.3
2019-Dec-08 21:50 147 1 gusting 3 5.4
2019-Dec-08 21:45 144 1 gusting 3 5.4
2019-Dec-08 21:40 142 2 gusting 3 5.5
2019-Dec-08 21:35 141 2 gusting 4 5.6
2019-Dec-08 21:30 140 1 gusting 3 5.7
2019-Dec-08 21:25 129 2 gusting 4 5.8
2019-Dec-08 21:20 140 2 gusting 5 5.9
2019-Dec-08 21:15 138 2 gusting 4 6.0
2019-Dec-08 21:10 137 2 gusting 4 6.0
2019-Dec-08 21:05 135 2 gusting 4 6.2
2019-Dec-08 21:00 143 2 gusting 5 6.3
2019-Dec-08 20:55 133 2 gusting 5 6.3
2019-Dec-08 20:50 140 3 gusting 6 6.4
2019-Dec-08 20:45 146 2 gusting 6 6.3
2019-Dec-08 20:40 147 2 gusting 4 6.4
2019-Dec-08 20:35 137 3 gusting 7 6.5
2019-Dec-08 20:30 138 2 gusting 4 6.6
2019-Dec-08 20:25 143 3 gusting 5 6.6
2019-Dec-08 20:20 139 3 gusting 6 6.6
2019-Dec-08 20:15 136 3 gusting 7 6.6
2019-Dec-08 20:10 139 3 gusting 8 6.6
2019-Dec-08 20:05 144 3 gusting 6 6.6
2019-Dec-08 20:00 121 3 gusting 7 6.6
2019-Dec-08 19:55 119 3 gusting 7 6.7
2019-Dec-08 19:50 125 4 gusting 7 6.7
2019-Dec-08 19:45 141 3 gusting 7 6.7
2019-Dec-08 19:40 138 3 gusting 5 6.7
2019-Dec-08 19:35 122 3 gusting 6 6.8
2019-Dec-08 19:30 140 3 gusting 8 6.8
2019-Dec-08 19:25 135 3 gusting 6 6.8
2019-Dec-08 19:20 141 4 gusting 8 6.9
2019-Dec-08 19:15 149 4 gusting 7 7.0
2019-Dec-08 19:10 129 4 gusting 8 6.9
2019-Dec-08 19:05 138 4 gusting 8 6.9
2019-Dec-08 19:00 127 3 gusting 7 7.1
2019-Dec-08 18:55 128 3 gusting 7 6.9
2019-Dec-08 18:50 165 5 gusting 10 7.4
2019-Dec-08 18:45 166 3 gusting 7 7.4
2019-Dec-08 18:40 140 2 gusting 4 7.0
2019-Dec-08 18:35 119 2 gusting 4 6.8
2019-Dec-08 18:30 143 3 gusting 7 6.8
2019-Dec-08 18:25 143 4 gusting 8 6.7
2019-Dec-08 18:20 128 3 gusting 8 6.7
2019-Dec-08 18:15 146 5 gusting 8 6.8
2019-Dec-08 18:10 134 4 gusting 8 6.7
2019-Dec-08 18:05 123 3 gusting 6 6.4
2019-Dec-08 18:00 133 3 gusting 6 6.7
2019-Dec-08 17:55 137 3 gusting 7 6.9
2019-Dec-08 17:50 151 3 gusting 5 6.4
2019-Dec-08 17:45 171 4 gusting 6 6.4
2019-Dec-08 17:40 163 4 gusting 7 6.2
2019-Dec-08 17:35 158 5 gusting 10 6.2
2019-Dec-08 17:30 148 3 gusting 8 6.4
2019-Dec-08 17:25 143 3 gusting 7 6.0
2019-Dec-08 17:20 170 5 gusting 8 6.0
2019-Dec-08 17:15 165 4 gusting 7 6.3
2019-Dec-08 17:10 167 3 gusting 7 6.1
2019-Dec-08 17:05 150 4 gusting 7 5.7
2019-Dec-08 17:00 158 4 gusting 8 6.0
2019-Dec-08 16:55 151 4 gusting 10 5.7
2019-Dec-08 16:50 161 5 gusting 10 5.9
2019-Dec-08 16:45 173 4 gusting 8 5.6
2019-Dec-08 16:40 148 5 gusting 10 5.5
2019-Dec-08 16:35 151 3 gusting 8 5.9
2019-Dec-08 16:30 136 3 gusting 6 5.6
2019-Dec-08 16:25 150 4 gusting 8 5.4
2019-Dec-08 16:20 159 5 gusting 10 5.4
2019-Dec-08 16:15 142 4 gusting 8 5.3
2019-Dec-08 16:10 132 3 gusting 8 5.3
2019-Dec-08 16:05 154 4 gusting 7 5.2
2019-Dec-08 16:00 158 3 gusting 6 5.3
2019-Dec-08 15:55 157 4 gusting 7 5.0
2019-Dec-08 15:50 156 4 gusting 9 5.0
2019-Dec-08 15:45 164 5 gusting 10 5.2
2019-Dec-08 15:40 158 4 gusting 8 4.8
2019-Dec-08 15:35 143 4 gusting 9 4.8
2019-Dec-08 15:30 146 4 gusting 7 4.7
2019-Dec-08 15:25 128 3 gusting 7 4.7
2019-Dec-08 15:20 140 3 gusting 7 4.6
2019-Dec-08 15:15 153 3 gusting 7 4.5
2019-Dec-08 15:10 146 3 gusting 7 4.3
2019-Dec-08 15:05 130 2 gusting 5 4.3
2019-Dec-08 15:00 122 3 gusting 6 4.1
2019-Dec-08 14:55 143 2 gusting 6 4.2
2019-Dec-08 14:50 140 2 gusting 4 4.0
2019-Dec-08 14:45 109 0 gusting 2 3.3
2019-Dec-08 14:40 068 1 gusting 3 2.8
2019-Dec-08 14:35 047 1 gusting 2 2.4
2019-Dec-08 14:30 060 1 gusting 2 2.1
2019-Dec-08 14:25 060 1 gusting 3 1.7
2019-Dec-08 14:20 057 1 gusting 2 1.3
2019-Dec-08 14:15 043 1 gusting 2 1.0
2019-Dec-08 14:10 069 1 gusting 2 0.9
2019-Dec-08 14:05 045 1 gusting 2 0.6
2019-Dec-08 14:00 035 1 gusting 1 0.3
2019-Dec-08 13:55 039 1 gusting 1 0.2
2019-Dec-08 13:50 053 1 gusting 1 0.0
2019-Dec-08 13:45 033 0 gusting 1 -0.4
2019-Dec-08 13:40 017 0 gusting 0 -0.8
2019-Dec-08 13:35 -1.1
2019-Dec-08 13:30 -1.6
2019-Dec-08 13:25 -1.8
2019-Dec-08 13:20 -1.6
2019-Dec-08 13:15 -2.5
2019-Dec-08 13:10 -3.3
2019-Dec-08 13:05 -3.5
2019-Dec-08 13:00 -4.2
2019-Dec-08 12:55 -4.6
2019-Dec-08 12:50 -4.8
2019-Dec-08 12:45 244 0 gusting 0 -5.1
2019-Dec-08 12:40 244 0 gusting 0 -5.3
2019-Dec-08 12:35 -5.4
2019-Dec-08 12:30 -5.5
2019-Dec-08 12:25 -5.6
2019-Dec-08 12:20 -5.5
2019-Dec-08 12:15 -5.8
2019-Dec-08 12:10 -5.8
2019-Dec-08 12:05 -5.7
2019-Dec-08 12:00 -5.9
2019-Dec-08 11:55 -5.7
2019-Dec-08 11:50 -5.8
2019-Dec-08 11:45 244 0 gusting 0 -5.9
2019-Dec-08 11:40 244 0 gusting 0 -5.6
2019-Dec-08 11:35 244 0 gusting 0 -5.8
2019-Dec-08 11:30 244 0 gusting 0 -5.8
2019-Dec-08 11:25 -5.7
2019-Dec-08 11:20 -5.6
2019-Dec-08 11:15 -5.4
2019-Dec-08 11:10 -5.6
2019-Dec-08 11:05 -5.5
2019-Dec-08 11:00 244 0 gusting 0 -5.5
2019-Dec-08 10:55 244 0 gusting 0 -5.8
2019-Dec-08 10:50 244 0 gusting 0 -5.7
2019-Dec-08 10:45 -5.6
2019-Dec-08 10:40 244 0 gusting 0 -5.6
2019-Dec-08 10:35 244 0 gusting 0 -5.7
2019-Dec-08 10:30 244 0 gusting 0 -5.7
2019-Dec-08 10:25 244 0 gusting 0 -5.7
2019-Dec-08 10:20 244 0 gusting 0 -5.7
2019-Dec-08 10:15 244 0 gusting 0 -5.7
2019-Dec-08 10:10 -5.7
2019-Dec-08 10:05 -5.7
2019-Dec-08 10:00 -5.3
2019-Dec-08 09:55 -5.3
2019-Dec-08 09:50 -5.3
2019-Dec-08 09:45 -5.3
2019-Dec-08 09:40 -5.2
2019-Dec-08 09:35 -5.4
2019-Dec-08 09:30 244 0 gusting 0 -5.6
2019-Dec-08 09:25 244 0 gusting 0 -5.4
2019-Dec-08 09:20 -5.4
2019-Dec-08 09:15 -5.5
2019-Dec-08 09:10 -5.6
2019-Dec-08 09:05 -5.3
2019-Dec-08 09:00 -5.1
2019-Dec-08 08:55 -5.2
2019-Dec-08 08:50 -5.1
2019-Dec-08 08:45 244 0 gusting 0 -5.2
2019-Dec-08 08:40 -5.3
2019-Dec-08 08:35 -5.4
2019-Dec-08 08:30 -5.5
2019-Dec-08 08:25 -5.4
2019-Dec-08 08:20 -5.3
2019-Dec-08 08:15 -5.1
2019-Dec-08 08:10 244 0 gusting 0 -5.1
2019-Dec-08 08:05 244 0 gusting 0 -5.3
2019-Dec-08 08:00 -5.4
2019-Dec-08 07:55 -5.4
2019-Dec-08 07:50 -5.5
2019-Dec-08 07:45 -5.4
2019-Dec-08 07:40 -5.4
2019-Dec-08 07:35 -5.5
2019-Dec-08 07:30 -5.6
2019-Dec-08 07:25 -5.5
2019-Dec-08 07:20 -5.3
2019-Dec-08 07:15 244 0 gusting 0 -5.4
2019-Dec-08 07:10 -5.5
2019-Dec-08 07:05 -5.5
2019-Dec-08 07:00 -5.5
2019-Dec-08 06:55 -5.4
2019-Dec-08 06:50 -5.3
2019-Dec-08 06:45 -5.2
2019-Dec-08 06:40 -5.1
2019-Dec-08 06:35 -5.2
2019-Dec-08 06:30 -5.1
2019-Dec-08 06:25 -4.9
2019-Dec-08 06:20 -4.8
2019-Dec-08 06:15 -4.7
2019-Dec-08 06:10 244 0 gusting 0 -4.8
2019-Dec-08 06:05 244 0 gusting 0 -5.0
2019-Dec-08 06:00 244 0 gusting 0 -5.1
2019-Dec-08 05:55 -4.9
2019-Dec-08 05:50 -4.9
2019-Dec-08 05:45 244 0 gusting 0 -4.9
2019-Dec-08 05:40 244 0 gusting 1 -4.7
2019-Dec-08 05:35 245 0 gusting 1 -4.7
2019-Dec-08 05:30 258 0 gusting 0 -4.8
2019-Dec-08 05:25 -4.9
2019-Dec-08 05:20 -4.7
2019-Dec-08 05:15 -4.6
2019-Dec-08 05:10 -4.6
2019-Dec-08 05:05 -4.6
2019-Dec-08 05:00 -4.8
2019-Dec-08 04:55 -4.9
2019-Dec-08 04:50 -4.7
2019-Dec-08 04:45 -4.6
2019-Dec-08 04:40 -4.7
2019-Dec-08 04:35 -4.6
2019-Dec-08 04:30 -4.4
2019-Dec-08 04:25 -4.3
2019-Dec-08 04:20 -4.3
2019-Dec-08 04:15 -4.3
2019-Dec-08 04:10 -4.3
2019-Dec-08 04:05 -4.1
2019-Dec-08 04:00 -3.9
2019-Dec-08 03:55 -3.8
2019-Dec-08 03:50 -3.8
2019-Dec-08 03:45 -3.6
2019-Dec-08 03:40 -3.4
2019-Dec-08 03:35 268 0 gusting 0 -3.3
2019-Dec-08 03:30 268 0 gusting 0 -3.4
2019-Dec-08 03:25 268 0 gusting 0 -3.5
2019-Dec-08 03:20 268 0 gusting 0 -3.7
2019-Dec-08 03:15 -3.6
2019-Dec-08 03:10 -3.4
2019-Dec-08 03:05 -3.6
2019-Dec-08 03:00 -3.4
2019-Dec-08 02:55 269 0 gusting 0 -3.2
2019-Dec-08 02:50 269 0 gusting 0 -3.1
2019-Dec-08 02:45 254 0 gusting 1 -2.9
2019-Dec-08 02:40 234 0 gusting 0 -3.2
2019-Dec-08 02:35 -3.1
2019-Dec-08 02:30 -2.9
2019-Dec-08 02:25 234 0 gusting 0 -3.1
2019-Dec-08 02:20 234 0 gusting 0 -2.8
2019-Dec-08 02:15 -2.7
2019-Dec-08 02:10 234 0 gusting 0 -2.6
2019-Dec-08 02:05 234 0 gusting 0 -2.6
2019-Dec-08 02:00 234 0 gusting 0 -2.6
2019-Dec-08 01:55 233 0 gusting 0 -2.5
2019-Dec-08 01:50 233 0 gusting 0 -2.6
2019-Dec-08 01:45 233 0 gusting 0 -2.3
2019-Dec-08 01:40 233 0 gusting 1 -2.2
2019-Dec-08 01:35 233 0 gusting 1 -2.2
2019-Dec-08 01:30 233 0 gusting 1 -1.8
2019-Dec-08 01:25 233 1 gusting 1 -1.9
2019-Dec-08 01:20 233 0 gusting 1 -2.2
2019-Dec-08 01:15 233 0 gusting 0 -2.0
2019-Dec-08 01:10 234 0 gusting 0 -2.3
2019-Dec-08 01:05 234 0 gusting 0 -2.4
2019-Dec-08 01:00 234 0 gusting 0 -2.2
2019-Dec-08 00:55 234 0 gusting 0 -2.2
2019-Dec-08 00:50 234 0 gusting 0 -2.2
2019-Dec-08 00:45 233 0 gusting 0 -2.4
2019-Dec-08 00:40 -2.5
2019-Dec-08 00:35 -2.4
2019-Dec-08 00:30 -2.2
2019-Dec-08 00:25 -1.9
2019-Dec-08 00:20 -1.7
2019-Dec-08 00:15 -1.5
2019-Dec-08 00:10 -1.5
2019-Dec-08 00:05 -1.4
2019-Dec-08 00:00 234 0 gusting 0 -1.0
2019-Dec-07 23:55 237 0 gusting 1 -0.9
2019-Dec-07 23:50 267 0 gusting 0 -1.1
2019-Dec-07 23:45 -1.0
2019-Dec-07 23:40 -0.8
2019-Dec-07 23:35 267 0 gusting 0 -0.5
2019-Dec-07 23:30 264 0 gusting 1 -0.4
2019-Dec-07 23:25 259 0 gusting 0 -0.3
2019-Dec-07 23:20 259 0 gusting 0 -0.3
2019-Dec-07 23:15 259 0 gusting 0 -0.4
2019-Dec-07 23:10 259 0 gusting 0 -0.5
2019-Dec-07 23:05 259 0 gusting 0 -0.5
2019-Dec-07 23:00 259 0 gusting 0 -0.5
2019-Dec-07 22:55 259 0 gusting 0 -0.3
2019-Dec-07 22:50 259 0 gusting 0 -0.3
2019-Dec-07 22:45 -0.5
2019-Dec-07 22:40 -0.3
2019-Dec-07 22:35 259 0 gusting 0 0.1
2019-Dec-07 22:30 0.2
2019-Dec-07 22:25 0.3
2019-Dec-07 22:20 0.2
2019-Dec-07 22:15 0.3
2019-Dec-07 22:10 0.5
2019-Dec-07 22:05 0.9
2019-Dec-07 22:00 1.5
2019-Dec-07 21:55 2.0
2019-Dec-07 21:50 259 0 gusting 0 2.2
2019-Dec-07 21:45 259 0 gusting 0 2.4
2019-Dec-07 21:40 314 0 gusting 0 2.5
2019-Dec-07 21:35 335 0 gusting 1 2.7
2019-Dec-07 21:30 354 0 gusting 2 2.7
2019-Dec-07 21:25 014 0 gusting 1 3.0
2019-Dec-07 21:20 356 0 gusting 1 3.2
2019-Dec-07 21:15 002 1 gusting 3 3.7
2019-Dec-07 21:10 006 1 gusting 2 3.9
2019-Dec-07 21:05 350 1 gusting 3 4.0
2019-Dec-07 21:00 347 2 gusting 4 4.0
2019-Dec-07 20:55 353 1 gusting 4 4.2
2019-Dec-07 20:50 355 1 gusting 3 4.4
2019-Dec-07 20:45 004 2 gusting 6 4.5
2019-Dec-07 20:40 353 1 gusting 3 4.7
2019-Dec-07 20:35 348 1 gusting 4 4.7
2019-Dec-07 20:30 357 1 gusting 4 4.8
2019-Dec-07 20:25 350 1 gusting 4 4.9
2019-Dec-07 20:20 333 2 gusting 5 4.7
2019-Dec-07 20:15 010 3 gusting 5 4.7
2019-Dec-07 20:10 353 2 gusting 4 4.9
2019-Dec-07 20:05 007 4 gusting 7 4.9
2019-Dec-07 20:00 353 3 gusting 9 5.2
2019-Dec-07 19:55 350 2 gusting 5 5.1
2019-Dec-07 19:50 355 3 gusting 7 5.0
2019-Dec-07 19:45 004 3 gusting 8 5.1
2019-Dec-07 19:40 007 4 gusting 7 5.0
2019-Dec-07 19:35 346 2 gusting 5 5.2
2019-Dec-07 19:30 343 2 gusting 6 5.0
2019-Dec-07 19:25 009 4 gusting 9 4.9
2019-Dec-07 19:20 333 3 gusting 7 5.0
2019-Dec-07 19:15 338 3 gusting 6 5.1
2019-Dec-07 19:10 303 2 gusting 6 5.1
2019-Dec-07 19:05 329 2 gusting 5 5.0
2019-Dec-07 19:00 326 3 gusting 8 5.0
2019-Dec-07 18:55 354 4 gusting 7 4.9
2019-Dec-07 18:50 358 4 gusting 7 5.2
2019-Dec-07 18:45 309 2 gusting 5 5.2
2019-Dec-07 18:40 310 3 gusting 7 5.1
2019-Dec-07 18:35 005 5 gusting 10 5.1
2019-Dec-07 18:30 340 2 gusting 8 5.2
2019-Dec-07 18:25 348 2 gusting 5 5.3
2019-Dec-07 18:20 334 2 gusting 6 5.0
2019-Dec-07 18:15 347 2 gusting 6 4.7
2019-Dec-07 18:10 353 3 gusting 8 4.3
2019-Dec-07 18:05 351 2 gusting 7 4.3
2019-Dec-07 18:00 345 2 gusting 5 4.2
2019-Dec-07 17:55 340 1 gusting 5 4.2
2019-Dec-07 17:50 325 2 gusting 6 4.2
2019-Dec-07 17:45 347 3 gusting 8 4.5
2019-Dec-07 17:40 341 2 gusting 5 4.5
2019-Dec-07 17:35 346 2 gusting 5 4.4
2019-Dec-07 17:30 313 1 gusting 4 4.5
2019-Dec-07 17:25 351 2 gusting 4 4.3
2019-Dec-07 17:20 341 2 gusting 5 4.4
2019-Dec-07 17:15 311 2 gusting 5 4.3
2019-Dec-07 17:10 293 2 gusting 5 4.2
2019-Dec-07 17:05 334 2 gusting 5 4.4
2019-Dec-07 17:00 354 3 gusting 6 4.3
2019-Dec-07 16:55 350 3 gusting 7 4.4
2019-Dec-07 16:50 354 3 gusting 7 4.6
2019-Dec-07 16:45 333 2 gusting 5 4.6
2019-Dec-07 16:40 010 4 gusting 8 4.4
2019-Dec-07 16:35 357 4 gusting 6 4.6
2019-Dec-07 16:30 324 2 gusting 6 4.8
2019-Dec-07 16:25 305 1 gusting 5 4.9
2019-Dec-07 16:20 301 2 gusting 6 4.6
2019-Dec-07 16:15 349 2 gusting 5 4.4
2019-Dec-07 16:10 010 3 gusting 5 4.2
2019-Dec-07 16:05 019 3 gusting 6 4.2
2019-Dec-07 16:00 040 3 gusting 7 4.1
2019-Dec-07 15:55 010 4 gusting 7 4.5
2019-Dec-07 15:50 022 4 gusting 7 4.3
2019-Dec-07 15:45 029 4 gusting 8 4.2
2019-Dec-07 15:40 026 5 gusting 9 4.3
2019-Dec-07 15:35 021 3 gusting 7 4.5
2019-Dec-07 15:30 358 3 gusting 9 4.5
2019-Dec-07 15:25 015 3 gusting 9 4.4
2019-Dec-07 15:20 356 4 gusting 7 4.3
2019-Dec-07 15:15 010 3 gusting 5 4.3
2019-Dec-07 15:10 014 3 gusting 6 4.3
2019-Dec-07 15:05 012 3 gusting 8 4.3
2019-Dec-07 15:00 019 3 gusting 7 4.2
2019-Dec-07 14:55 021 4 gusting 7 4.1
2019-Dec-07 14:50 009 4 gusting 7 4.1
2019-Dec-07 14:45 014 4 gusting 6 4.1
2019-Dec-07 14:40 020 4 gusting 6 4.1
2019-Dec-07 14:35 007 3 gusting 5 3.9
2019-Dec-07 14:30 014 3 gusting 5 3.6
2019-Dec-07 14:25 015 3 gusting 5 3.5
2019-Dec-07 14:20 023 3 gusting 5 3.4
2019-Dec-07 14:15 357 2 gusting 5 3.3
2019-Dec-07 14:10 016 2 gusting 4 3.1
2019-Dec-07 14:05 019 3 gusting 5 3.1
2019-Dec-07 14:00 020 2 gusting 3 3.0
2019-Dec-07 13:55 021 2 gusting 4 3.0
2019-Dec-07 13:50 006 2 gusting 3 2.9
2019-Dec-07 13:45 013 1 gusting 3 3.0
2019-Dec-07 13:40 026 0 gusting 2 3.1
2019-Dec-07 13:35 267 0 gusting 1 2.6
2019-Dec-07 13:30 287 0 gusting 1 2.1
2019-Dec-07 13:25 238 0 gusting 1 1.7
2019-Dec-07 13:20 228 0 gusting 1 1.7
2019-Dec-07 13:15 228 0 gusting 0 1.4
2019-Dec-07 13:10 228 0 gusting 0 0.9
2019-Dec-07 13:05 228 0 gusting 0 0.2
2019-Dec-07 13:00 -0.6
2019-Dec-07 12:55 -0.9
2019-Dec-07 12:50 228 0 gusting 0 -1.3
2019-Dec-07 12:45 228 0 gusting 1 -1.5
2019-Dec-07 12:40 226 0 gusting 1 -1.2
2019-Dec-07 12:35 213 1 gusting 1 -1.6
2019-Dec-07 12:30 210 1 gusting 2 -1.8
2019-Dec-07 12:25 210 1 gusting 1 -2.1
2019-Dec-07 12:20 221 1 gusting 1 -2.1
2019-Dec-07 12:15 221 1 gusting 1 -1.9
2019-Dec-07 12:10 221 0 gusting 1 -1.7
2019-Dec-07 12:05 220 0 gusting 1 -1.6
2019-Dec-07 12:00 226 1 gusting 1 -1.8
2019-Dec-07 11:55 229 1 gusting 1 -2.1
2019-Dec-07 11:50 229 0 gusting 1 -2.3
2019-Dec-07 11:45 229 0 gusting 0 -2.4
2019-Dec-07 11:40 228 0 gusting 1 -2.3
2019-Dec-07 11:35 306 0 gusting 1 -2.1
2019-Dec-07 11:30 354 0 gusting 0 -2.0
2019-Dec-07 11:25 -2.0
2019-Dec-07 11:20 -1.8
2019-Dec-07 11:15 -1.4
2019-Dec-07 11:10 -1.2
2019-Dec-07 11:05 -0.9
2019-Dec-07 11:00 -0.7
2019-Dec-07 10:55 -0.4
2019-Dec-07 10:50 354 0 gusting 0 -0.3
2019-Dec-07 10:45 315 0 gusting 1 -0.1
2019-Dec-07 10:40 006 0 gusting 0 0.0
2019-Dec-07 10:35 038 0 gusting 1 0.3
2019-Dec-07 10:30 020 1 gusting 2 0.6
2019-Dec-07 10:25 009 2 gusting 3 0.7
2019-Dec-07 10:20 006 2 gusting 7 0.7
2019-Dec-07 10:15 004 2 gusting 4 0.3
2019-Dec-07 10:10 353 0 gusting 3 -0.1
2019-Dec-07 10:05 030 0 gusting 2 -0.4
2019-Dec-07 10:00 075 0 gusting 1 -0.1
2019-Dec-07 09:55 075 1 gusting 2 -0.1
2019-Dec-07 09:50 059 1 gusting 2 -0.0
2019-Dec-07 09:45 045 0 gusting 1 -0.3
2019-Dec-07 09:40 044 0 gusting 1 -0.2
2019-Dec-07 09:35 -0.2
2019-Dec-07 09:30 354 0 gusting 1 -0.3
2019-Dec-07 09:25 352 0 gusting 0 -0.4
2019-Dec-07 09:20 352 0 gusting 0 -0.3
2019-Dec-07 09:15 -0.2
2019-Dec-07 09:10 342 0 gusting 1 -0.3
2019-Dec-07 09:05 0.0
2019-Dec-07 09:00 001 0 gusting 0 0.5
2019-Dec-07 08:55 001 0 gusting 0 0.3
2019-Dec-07 08:50 001 0 gusting 0 0.3
2019-Dec-07 08:45 002 0 gusting 0 0.5
2019-Dec-07 08:40 002 0 gusting 0 0.5
2019-Dec-07 08:35 0.6
2019-Dec-07 08:30 0.6
2019-Dec-07 08:25 334 0 gusting 1 0.8
2019-Dec-07 08:20 011 0 gusting 3 0.7
2019-Dec-07 08:15 328 0 gusting 2 0.8
2019-Dec-07 08:10 1.0
2019-Dec-07 08:05 1.3
2019-Dec-07 08:00 322 0 gusting 0 1.4
2019-Dec-07 07:55 003 0 gusting 1 1.5
2019-Dec-07 07:50 353 0 gusting 0 1.6
2019-Dec-07 07:45 346 0 gusting 1 1.6
2019-Dec-07 07:40 345 0 gusting 1 1.6
2019-Dec-07 07:35 332 0 gusting 2 1.8
2019-Dec-07 07:30 023 0 gusting 1 2.0
2019-Dec-07 07:25 030 0 gusting 0 2.0
2019-Dec-07 07:20 025 0 gusting 1 2.3
2019-Dec-07 07:15 001 1 gusting 3 2.5
2019-Dec-07 07:10 016 1 gusting 2 2.6
2019-Dec-07 07:05 020 1 gusting 4 3.0
2019-Dec-07 07:00 031 1 gusting 5 2.7
2019-Dec-07 06:55 018 1 gusting 2 2.2
2019-Dec-07 06:50 290 0 gusting 0 2.1
2019-Dec-07 06:45 343 0 gusting 0 2.3
2019-Dec-07 06:40 337 0 gusting 1 2.7
2019-Dec-07 06:35 328 0 gusting 2 3.0
2019-Dec-07 06:30 356 1 gusting 2 3.3
2019-Dec-07 06:25 008 1 gusting 3 3.8
2019-Dec-07 06:20 010 2 gusting 4 4.3
2019-Dec-07 06:15 013 3 gusting 4 4.5
2019-Dec-07 06:10 004 2 gusting 5 4.7
2019-Dec-07 06:05 003 3 gusting 6 5.3
2019-Dec-07 06:00 004 4 gusting 8 5.5
2019-Dec-07 05:55 010 3 gusting 8 5.5
2019-Dec-07 05:50 006 2 gusting 5 5.7
2019-Dec-07 05:45 018 2 gusting 4 6.1
2019-Dec-07 05:40 016 4 gusting 7 6.3
2019-Dec-07 05:35 359 2 gusting 7 6.4
2019-Dec-07 05:30 356 3 gusting 9 6.6
2019-Dec-07 05:25 358 2 gusting 6 6.6
2019-Dec-07 05:20 009 4 gusting 7 6.8
2019-Dec-07 05:15 003 5 gusting 10 7.0
2019-Dec-07 05:10 015 5 gusting 9 7.2
2019-Dec-07 05:05 012 3 gusting 10 7.3
2019-Dec-07 05:00 356 2 gusting 6 7.4
2019-Dec-07 04:55 006 2 gusting 6 7.4
2019-Dec-07 04:50 006 1 gusting 5 7.7
2019-Dec-07 04:45 351 2 gusting 7 7.8
2019-Dec-07 04:40 356 3 gusting 9 7.8
2019-Dec-07 04:35 008 3 gusting 7 8.0
2019-Dec-07 04:30 010 4 gusting 11 8.1
2019-Dec-07 04:25 005 3 gusting 6 8.1
2019-Dec-07 04:20 348 3 gusting 6 8.1
2019-Dec-07 04:15 007 3 gusting 7 8.0
2019-Dec-07 04:10 358 3 gusting 7 8.3
2019-Dec-07 04:05 007 3 gusting 10 8.2
2019-Dec-07 04:00 003 2 gusting 4 8.4
2019-Dec-07 03:55 007 2 gusting 4 8.5
2019-Dec-07 03:50 006 2 gusting 5 8.6
2019-Dec-07 03:45 002 2 gusting 7 8.7
2019-Dec-07 03:40 359 2 gusting 6 8.8
2019-Dec-07 03:35 342 2 gusting 5 8.9
2019-Dec-07 03:30 343 2 gusting 6 8.9
2019-Dec-07 03:25 007 2 gusting 6 8.7
2019-Dec-07 03:20 002 2 gusting 5 8.6
2019-Dec-07 03:15 354 1 gusting 4 8.4
2019-Dec-07 03:10 006 1 gusting 5 8.1
2019-Dec-07 03:05 337 1 gusting 5 7.6
2019-Dec-07 03:00 358 1 gusting 4 7.0
2019-Dec-07 02:55 236 0 gusting 1 6.8
2019-Dec-07 02:50 263 0 gusting 0 6.8
2019-Dec-07 02:45 242 0 gusting 1 6.9
2019-Dec-07 02:40 7.3
2019-Dec-07 02:35 242 0 gusting 0 7.6
2019-Dec-07 02:30 263 0 gusting 0 7.9
2019-Dec-07 02:25 263 0 gusting 2 8.2
2019-Dec-07 02:20 266 0 gusting 2 8.2
2019-Dec-07 02:15 295 0 gusting 2 8.2
2019-Dec-07 02:10 321 0 gusting 3 8.3
2019-Dec-07 02:05 282 0 gusting 1 8.5
2019-Dec-07 02:00 280 0 gusting 1 8.8
2019-Dec-07 01:55 301 0 gusting 2 8.9
2019-Dec-07 01:50 324 0 gusting 1 9.1
2019-Dec-07 01:45 252 1 gusting 3 9.4
2019-Dec-07 01:40 283 1 gusting 3 9.8
2019-Dec-07 01:35 265 1 gusting 4 9.8
2019-Dec-07 01:30 279 1 gusting 6 9.8
2019-Dec-07 01:25 292 0 gusting 2 9.7
2019-Dec-07 01:20 287 0 gusting 4 9.9
2019-Dec-07 01:15 282 1 gusting 3 10.1
2019-Dec-07 01:10 272 2 gusting 5 10.1
2019-Dec-07 01:05 268 1 gusting 4 10.1
2019-Dec-07 01:00 312 0 gusting 2 10.3
2019-Dec-07 00:55 275 1 gusting 3 10.4
2019-Dec-07 00:50 255 3 gusting 5 10.5
2019-Dec-07 00:45 251 3 gusting 6 10.6
2019-Dec-07 00:40 252 2 gusting 4 10.6
2019-Dec-07 00:35 259 3 gusting 5 10.6
2019-Dec-07 00:30 254 2 gusting 5 10.6
2019-Dec-07 00:25 255 2 gusting 5 10.6
2019-Dec-07 00:20 257 2 gusting 5 10.6
2019-Dec-07 00:15 250 2 gusting 5 10.6
2019-Dec-07 00:10 255 2 gusting 6 10.6
2019-Dec-07 00:05 262 2 gusting 4 10.6
2019-Dec-07 00:00 263 2 gusting 4 10.6
2019-Dec-06 23:55 253 2 gusting 4 10.6
2019-Dec-06 23:50 248 3 gusting 6 10.6
2019-Dec-06 23:45 238 3 gusting 6 10.7
2019-Dec-06 23:40 239 4 gusting 6 10.6
2019-Dec-06 23:35 235 3 gusting 7 10.7
2019-Dec-06 23:30 234 4 gusting 7 10.7
2019-Dec-06 23:25 233 3 gusting 5 10.7
2019-Dec-06 23:20 232 4 gusting 9 10.7
2019-Dec-06 23:15 232 3 gusting 6 10.6
2019-Dec-06 23:10 230 4 gusting 6 10.6
2019-Dec-06 23:05 231 4 gusting 7 10.6
2019-Dec-06 23:00 231 3 gusting 5 10.6